TBA9730 ZSAM-ZUNZ

Flight info

Callsign TBA9730
Flight time 3h 45m
Altitude 32100
Route NUSPA9Z NUSPA W598 DABER W155 VETIB H25 WYN G586 SJG B330 QNX W136 SARPO H89 P570 H127 SB Z9 MYD Y3 ENPAT
Aircraft A319/M-SDE3FGHIRWY/LB1

Departure

Time 2026-04-19 03:50
Airport Xiamen Gaoqi International Airport (ZSAM)

Arrival

Time 2026-04-19 07:35
Airport Nyingchi Mainling Airport (ZUNZ)
Time Latitude Longitude Altitude Speed Heading
2026-04-19 03:04 24.54853 118.14063 46 ft 0 kts 232°
2026-04-19 03:39 24.54855 118.14066 44 ft 3 kts 232°
2026-04-19 03:39 24.54871 118.14089 46 ft 4 kts 238°
2026-04-19 03:39 24.54882 118.14115 45 ft 4 kts 270°
2026-04-19 03:39 24.54878 118.14131 45 ft 0 kts 322°
2026-04-19 03:42 24.54884 118.14125 45 ft 3 kts 322°
2026-04-19 03:42 24.54910 118.14103 43 ft 7 kts 322°
2026-04-19 03:42 24.54951 118.14068 44 ft 8 kts 322°
2026-04-19 03:43 24.54992 118.14023 45 ft 9 kts 290°
2026-04-19 03:43 24.54969 118.13963 45 ft 9 kts 232°
2026-04-19 03:43 24.54926 118.13903 46 ft 11 kts 232°
2026-04-19 03:43 24.54877 118.13833 44 ft 12 kts 231°
2026-04-19 03:44 24.54820 118.13755 46 ft 14 kts 232°
2026-04-19 03:44 24.54758 118.13668 47 ft 15 kts 232°
2026-04-19 03:44 24.54691 118.13572 47 ft 16 kts 232°
2026-04-19 03:44 24.54618 118.13470 48 ft 18 kts 232°
2026-04-19 03:45 24.54543 118.13363 48 ft 18 kts 232°
2026-04-19 03:45 24.54467 118.13255 50 ft 18 kts 232°
2026-04-19 03:45 24.54435 118.13176 50 ft 11 kts 290°
2026-04-19 03:45 24.54446 118.13103 51 ft 11 kts 235°
2026-04-19 03:46 24.54399 118.13035 53 ft 12 kts 232°
2026-04-19 03:46 24.54340 118.12954 54 ft 15 kts 232°
2026-04-19 03:46 24.54269 118.12855 53 ft 18 kts 232°
2026-04-19 03:46 24.54186 118.12738 52 ft 21 kts 232°
2026-04-19 03:47 24.54090 118.12605 51 ft 24 kts 232°
2026-04-19 03:47 24.53986 118.12459 50 ft 25 kts 232°
2026-04-19 03:47 24.53879 118.12310 54 ft 24 kts 232°
2026-04-19 03:47 24.53776 118.12164 58 ft 24 kts 232°
2026-04-19 03:48 24.53674 118.12022 59 ft 23 kts 232°
2026-04-19 03:48 24.53575 118.11884 56 ft 23 kts 232°
2026-04-19 03:48 24.53478 118.11748 58 ft 21 kts 232°
2026-04-19 03:48 24.53402 118.11636 62 ft 15 kts 243°
2026-04-19 03:49 24.53409 118.11544 62 ft 11 kts 285°
2026-04-19 03:49 24.53456 118.11480 65 ft 11 kts 336°
2026-04-19 03:49 24.53514 118.11512 65 ft 8 kts 53°
2026-04-19 03:49 24.53597 118.11627 55 ft 47 kts 51°
2026-04-19 03:50 24.53935 118.12101 55 ft 110 kts 52°
2026-04-19 03:50 24.54525 118.12925 49 ft 162 kts 52°
2026-04-19 03:50 24.55245 118.13927 556 ft 166 kts 51°
2026-04-19 03:50 24.55960 118.14923 1210 ft 167 kts 51°
2026-04-19 03:51 24.56714 118.15977 1620 ft 186 kts 51°
2026-04-19 03:51 24.57555 118.17154 1992 ft 204 kts 51°
2026-04-19 03:51 24.58443 118.18401 2634 ft 209 kts 51°
2026-04-19 03:51 24.59331 118.19650 3398 ft 211 kts 52°
2026-04-19 03:52 24.60238 118.20925 4149 ft 213 kts 51°
2026-04-19 03:52 24.61156 118.22213 4867 ft 216 kts 51°
2026-04-19 03:52 24.61972 118.23612 5537 ft 221 kts 69°
2026-04-19 03:52 24.62218 118.25280 6219 ft 225 kts 94°
2026-04-19 03:53 24.61785 118.26929 6875 ft 229 kts 120°
2026-04-19 03:53 24.60728 118.28241 7510 ft 233 kts 146°
2026-04-19 03:53 24.59239 118.28926 8155 ft 235 kts 173°
2026-04-19 03:53 24.57643 118.28830 8778 ft 235 kts 199°
2026-04-19 03:54 24.56230 118.27970 9398 ft 234 kts 225°
2026-04-19 03:54 24.55177 118.26604 10023 ft 235 kts 234°
2026-04-19 03:54 24.54165 118.25189 10655 ft 237 kts 234°
2026-04-19 03:54 24.53138 118.23772 11313 ft 238 kts 234°
2026-04-19 03:55 24.52100 118.22349 11965 ft 239 kts 234°
2026-04-19 03:55 24.51055 118.20917 12606 ft 243 kts 234°
2026-04-19 03:55 24.49964 118.19394 12833 ft 265 kts 235°
2026-04-19 03:55 24.48786 118.17721 13016 ft 288 kts 235°
2026-04-19 03:56 24.47530 118.15935 13186 ft 311 kts 235°
2026-04-19 03:56 24.46158 118.13989 13321 ft 334 kts 234°
2026-04-19 03:56 24.44689 118.11911 13517 ft 353 kts 234°
2026-04-19 03:56 24.43162 118.09760 14034 ft 360 kts 234°
2026-04-19 03:57 24.41610 118.07582 14650 ft 364 kts 234°
2026-04-19 03:57 24.40041 118.05384 15289 ft 367 kts 235°
2026-04-19 03:57 24.38462 118.03168 15913 ft 370 kts 235°
2026-04-19 03:57 24.36869 118.00936 16544 ft 373 kts 235°
2026-04-19 03:58 24.35268 117.98688 17168 ft 375 kts 236°
2026-04-19 03:58 24.33676 117.96451 17753 ft 378 kts 236°
2026-04-19 03:58 24.32052 117.94173 18358 ft 381 kts 236°
2026-04-19 03:58 24.30416 117.91877 18958 ft 383 kts 236°
2026-04-19 03:59 24.28769 117.89567 19559 ft 385 kts 236°
2026-04-19 03:59 24.27116 117.87247 20149 ft 387 kts 236°
2026-04-19 03:59 24.25456 117.84920 20723 ft 388 kts 236°
2026-04-19 03:59 24.23625 117.82711 21251 ft 394 kts 229°
2026-04-19 04:00 24.21664 117.80606 21788 ft 396 kts 229°
2026-04-19 04:00 24.19686 117.78488 22307 ft 398 kts 229°
2026-04-19 04:00 24.17731 117.76397 22802 ft 399 kts 229°
2026-04-19 04:00 24.15739 117.74266 23307 ft 401 kts 229°
2026-04-19 04:01 24.13741 117.72126 23761 ft 403 kts 229°
2026-04-19 04:01 24.09736 117.67802 24631 ft 405 kts 232°
2026-04-19 04:01 24.08066 117.65357 25036 ft 400 kts 243°
2026-04-19 04:02 24.06892 117.62615 25442 ft 397 kts 254°
2026-04-19 04:02 24.06244 117.59688 25851 ft 396 kts 264°
2026-04-19 04:02 24.06133 117.56723 26264 ft 396 kts 274°
2026-04-19 04:02 24.06452 117.53730 26697 ft 396 kts 277°
2026-04-19 04:03 24.06811 117.50732 27103 ft 398 kts 277°
2026-04-19 04:03 24.07167 117.47729 27486 ft 399 kts 277°
2026-04-19 04:03 24.07523 117.44709 27858 ft 401 kts 277°
2026-04-19 04:03 24.07878 117.41672 28234 ft 402 kts 277°
2026-04-19 04:04 24.08230 117.38634 28590 ft 404 kts 277°
2026-04-19 04:04 24.08583 117.35581 28923 ft 404 kts 277°
2026-04-19 04:04 24.08934 117.32570 29238 ft 405 kts 277°
2026-04-19 04:04 24.09292 117.29508 29527 ft 407 kts 277°
2026-04-19 04:05 24.09650 117.26432 29834 ft 409 kts 277°
2026-04-19 04:05 24.10007 117.23339 30146 ft 410 kts 277°
2026-04-19 04:05 24.10365 117.20250 30548 ft 408 kts 277°
2026-04-19 04:05 24.10723 117.17174 30978 ft 407 kts 277°
2026-04-19 04:06 24.11078 117.14110 31367 ft 406 kts 277°
2026-04-19 04:06 24.11433 117.11049 31746 ft 405 kts 277°
2026-04-19 04:06 24.11786 117.07995 32033 ft 405 kts 277°
2026-04-19 04:06 24.12136 117.04949 32095 ft 401 kts 277°
2026-04-19 04:07 24.12817 116.98959 32097 ft 397 kts 276°
2026-04-19 04:07 24.13504 116.92961 32099 ft 398 kts 277°
2026-04-19 04:08 24.14194 116.86962 32101 ft 397 kts 277°
2026-04-19 04:08 24.14642 116.80936 32100 ft 397 kts 273°
2026-04-19 04:09 24.14824 116.74934 32095 ft 397 kts 272°
2026-04-19 04:09 24.14992 116.68897 32092 ft 397 kts 272°
2026-04-19 04:10 24.15221 116.62852 32088 ft 397 kts 273°
2026-04-19 04:10 24.15474 116.56814 32084 ft 397 kts 273°
2026-04-19 04:11 24.15715 116.50811 32086 ft 397 kts 273°
2026-04-19 04:11 24.15950 116.44764 32084 ft 398 kts 273°
2026-04-19 04:12 24.16188 116.38719 32082 ft 398 kts 273°
2026-04-19 04:12 24.16431 116.32653 32086 ft 399 kts 273°
2026-04-19 04:13 24.16666 116.26621 32087 ft 399 kts 273°
2026-04-19 04:13 24.16901 116.20543 32083 ft 399 kts 272°
2026-04-19 04:14 24.17134 116.14462 32086 ft 400 kts 273°
2026-04-19 04:14 24.17369 116.08384 32089 ft 399 kts 274°
2026-04-19 04:15 24.17815 116.02372 32089 ft 399 kts 276°
2026-04-19 04:15 24.18426 115.96325 32092 ft 399 kts 276°
2026-04-19 04:16 24.19040 115.90286 32092 ft 399 kts 276°
2026-04-19 04:16 24.19606 115.84242 32095 ft 399 kts 276°
2026-04-19 04:17 24.20153 115.78230 32090 ft 399 kts 276°
2026-04-19 04:17 24.20699 115.72176 32079 ft 400 kts 276°
2026-04-19 04:18 24.21249 115.66121 32072 ft 399 kts 276°
2026-04-19 04:18 24.21794 115.60068 32069 ft 400 kts 276°
2026-04-19 04:19 24.22335 115.54004 32067 ft 400 kts 276°
2026-04-19 04:19 24.22868 115.47988 32062 ft 399 kts 276°
2026-04-19 04:20 24.23405 115.41943 32056 ft 399 kts 276°
2026-04-19 04:20 24.23942 115.35886 32055 ft 399 kts 276°
2026-04-19 04:21 24.24472 115.29831 32046 ft 400 kts 276°
2026-04-19 04:21 24.25006 115.23799 32053 ft 400 kts 276°
2026-04-19 04:22 24.25536 115.17726 32050 ft 401 kts 276°
2026-04-19 04:22 24.26060 115.11643 32050 ft 401 kts 276°
2026-04-19 04:23 24.26584 115.05556 32051 ft 401 kts 276°
2026-04-19 04:23 24.27103 114.99506 32046 ft 402 kts 276°
2026-04-19 04:24 24.27621 114.93409 32041 ft 402 kts 276°
2026-04-19 04:24 24.28137 114.87303 32039 ft 402 kts 276°
2026-04-19 04:25 24.28658 114.81196 32034 ft 402 kts 276°
2026-04-19 04:25 24.29204 114.75134 32036 ft 403 kts 276°
2026-04-19 04:26 24.29750 114.69017 32037 ft 404 kts 276°
2026-04-19 04:26 24.30291 114.62894 32035 ft 404 kts 276°
2026-04-19 04:27 24.30818 114.56759 32037 ft 405 kts 276°
2026-04-19 04:27 24.31339 114.50611 32037 ft 405 kts 276°
2026-04-19 04:28 24.31872 114.44513 32037 ft 405 kts 276°
2026-04-19 04:28 24.32445 114.38355 32034 ft 406 kts 276°
2026-04-19 04:29 24.33011 114.32199 32033 ft 406 kts 276°
2026-04-19 04:29 24.33565 114.26031 32029 ft 407 kts 276°
2026-04-19 04:30 24.34116 114.19887 32032 ft 408 kts 276°
2026-04-19 04:30 24.34726 114.13705 32035 ft 408 kts 276°
2026-04-19 04:31 24.35362 114.07519 32040 ft 408 kts 277°
2026-04-19 04:31 24.36023 114.01340 32039 ft 408 kts 277°
2026-04-19 04:32 24.36684 113.95153 32037 ft 408 kts 277°
2026-04-19 04:32 24.37332 113.89004 32038 ft 409 kts 277°
2026-04-19 04:33 24.37983 113.82804 32041 ft 409 kts 277°
2026-04-19 04:33 24.38624 113.76608 32041 ft 409 kts 277°
2026-04-19 04:34 24.39264 113.70403 32035 ft 410 kts 277°
2026-04-19 04:34 24.39899 113.64231 32039 ft 410 kts 277°
2026-04-19 04:35 24.40533 113.58014 32040 ft 410 kts 277°
2026-04-19 04:35 24.41165 113.51798 32041 ft 410 kts 276°
2026-04-19 04:36 24.41798 113.45588 32037 ft 409 kts 276°
2026-04-19 04:36 24.42425 113.39417 32035 ft 410 kts 277°
2026-04-19 04:37 24.43065 113.33206 32034 ft 410 kts 277°
2026-04-19 04:37 24.43716 113.26983 32038 ft 411 kts 277°
2026-04-19 04:38 24.44359 113.20754 32041 ft 411 kts 276°
2026-04-19 04:38 24.44986 113.14560 32033 ft 411 kts 276°
2026-04-19 04:39 24.45613 113.08314 32034 ft 412 kts 276°
2026-04-19 04:39 24.46243 113.02052 32036 ft 413 kts 276°
2026-04-19 04:40 24.46871 112.95794 32035 ft 413 kts 276°
2026-04-19 04:40 24.47493 112.89570 32035 ft 413 kts 276°
2026-04-19 04:41 24.48115 112.83298 32034 ft 413 kts 276°
2026-04-19 04:41 24.48731 112.77023 32034 ft 414 kts 276°
2026-04-19 04:42 24.49349 112.70731 32036 ft 415 kts 276°
2026-04-19 04:42 24.49961 112.64478 32033 ft 415 kts 276°
2026-04-19 04:43 24.50582 112.58176 32035 ft 415 kts 276°
2026-04-19 04:43 24.51201 112.51866 32033 ft 416 kts 276°
2026-04-19 04:44 24.51813 112.45548 32032 ft 416 kts 276°
2026-04-19 04:44 24.52417 112.39224 32033 ft 416 kts 276°
2026-04-19 04:45 24.53016 112.32948 32034 ft 416 kts 276°
2026-04-19 04:45 24.53625 112.26629 32037 ft 416 kts 276°
2026-04-19 04:46 24.54223 112.20306 32038 ft 417 kts 275°
2026-04-19 04:46 24.54819 112.14021 32041 ft 417 kts 276°
2026-04-19 04:47 24.55419 112.07666 32042 ft 417 kts 276°
2026-04-19 04:47 24.56006 112.01317 32045 ft 418 kts 276°
2026-04-19 04:48 24.56597 111.94972 32043 ft 418 kts 276°
2026-04-19 04:48 24.57196 111.88615 32043 ft 419 kts 275°
2026-04-19 04:49 24.57788 111.82251 32040 ft 419 kts 275°
2026-04-19 04:49 24.58368 111.75922 32043 ft 419 kts 275°
2026-04-19 04:50 24.58956 111.69552 32044 ft 419 kts 275°
2026-04-19 04:50 24.59546 111.63178 32046 ft 419 kts 275°
2026-04-19 04:51 24.60123 111.56801 32045 ft 419 kts 275°
2026-04-19 04:51 24.60697 111.50477 32049 ft 419 kts 275°
2026-04-19 04:52 24.61271 111.44100 32053 ft 419 kts 275°
2026-04-19 04:52 24.61839 111.37729 32051 ft 418 kts 275°
2026-04-19 04:53 24.62411 111.31364 32051 ft 418 kts 275°
2026-04-19 04:53 24.62975 111.25045 32051 ft 418 kts 275°
2026-04-19 04:54 24.63524 111.18685 32050 ft 418 kts 275°
2026-04-19 04:54 24.64070 111.12319 32047 ft 418 kts 275°
2026-04-19 04:55 24.64609 111.05942 32050 ft 419 kts 275°
2026-04-19 04:55 24.65149 110.99561 32051 ft 420 kts 275°
2026-04-19 04:56 24.65690 110.93218 32053 ft 420 kts 275°
2026-04-19 04:56 24.66230 110.86816 32056 ft 421 kts 275°
2026-04-19 04:57 24.67111 110.80471 32054 ft 422 kts 286°
2026-04-19 04:57 24.69890 110.74797 32055 ft 428 kts 307°
2026-04-19 04:58 24.74115 110.70202 32055 ft 431 kts 313°
2026-04-19 04:58 24.78446 110.65649 32055 ft 431 kts 313°
2026-04-19 04:59 24.82777 110.61084 32054 ft 431 kts 313°
2026-04-19 04:59 24.87106 110.56511 32054 ft 432 kts 313°
2026-04-19 05:00 24.91438 110.51924 32052 ft 432 kts 313°
2026-04-19 05:00 24.95748 110.47370 32054 ft 432 kts 313°
2026-04-19 05:01 25.00086 110.42781 32054 ft 432 kts 313°
2026-04-19 05:01 25.04429 110.38188 32057 ft 432 kts 313°
2026-04-19 05:02 25.08781 110.33612 32054 ft 432 kts 313°
2026-04-19 05:02 25.13098 110.29059 32055 ft 432 kts 313°
2026-04-19 05:03 25.17423 110.24464 32053 ft 432 kts 313°
2026-04-19 05:03 25.21757 110.19864 32049 ft 432 kts 313°
2026-04-19 05:04 25.26122 110.15296 32050 ft 432 kts 313°
2026-04-19 05:04 25.30494 110.10738 32052 ft 433 kts 313°
2026-04-19 05:05 25.34838 110.06190 32056 ft 433 kts 313°
2026-04-19 05:05 25.39199 110.01604 32057 ft 433 kts 313°
2026-04-19 05:06 25.43569 109.97013 32059 ft 434 kts 313°
2026-04-19 05:06 25.47947 109.92408 32061 ft 434 kts 313°
2026-04-19 05:07 25.52291 109.87830 32061 ft 434 kts 313°
2026-04-19 05:07 25.56659 109.83218 32061 ft 434 kts 313°
2026-04-19 05:08 25.63213 109.76301 32063 ft 434 kts 313°
2026-04-19 05:09 25.67587 109.71683 32063 ft 434 kts 313°
2026-04-19 05:09 25.71925 109.67093 32062 ft 434 kts 313°
2026-04-19 05:10 25.76122 109.62303 32063 ft 431 kts 304°
2026-04-19 05:10 25.78855 109.56479 32066 ft 425 kts 285°
2026-04-19 05:11 25.80508 109.50187 32068 ft 425 kts 285°
2026-04-19 05:11 25.82161 109.43939 32069 ft 425 kts 285°
2026-04-19 05:12 25.83824 109.37644 32069 ft 425 kts 284°
2026-04-19 05:12 25.85476 109.31343 32069 ft 425 kts 284°
2026-04-19 05:13 25.87130 109.25043 32067 ft 425 kts 284°
2026-04-19 05:13 25.88768 109.18784 32066 ft 425 kts 284°
2026-04-19 05:14 25.90412 109.12472 32065 ft 426 kts 284°
2026-04-19 05:14 25.92053 109.06157 32066 ft 425 kts 284°
2026-04-19 05:15 25.93707 108.99840 32067 ft 425 kts 285°
2026-04-19 05:15 25.95381 108.93574 32066 ft 426 kts 285°
2026-04-19 05:16 25.97065 108.87267 32065 ft 426 kts 284°
2026-04-19 05:16 25.98743 108.80953 32064 ft 427 kts 285°
2026-04-19 05:17 26.00414 108.74629 32067 ft 427 kts 285°
2026-04-19 05:17 26.02093 108.68287 32063 ft 427 kts 285°
2026-04-19 05:18 26.03768 108.62000 32055 ft 427 kts 285°
2026-04-19 05:18 26.05451 108.55665 32055 ft 427 kts 285°
2026-04-19 05:19 26.07133 108.49325 32054 ft 427 kts 285°
2026-04-19 05:19 26.08805 108.42984 32045 ft 427 kts 284°
2026-04-19 05:20 26.10474 108.36681 32051 ft 428 kts 285°
2026-04-19 05:20 26.12171 108.30325 32051 ft 429 kts 285°
2026-04-19 05:21 26.13871 108.23962 32058 ft 429 kts 285°
2026-04-19 05:21 26.15568 108.17597 32062 ft 429 kts 285°
2026-04-19 05:22 26.17252 108.11277 32064 ft 429 kts 285°
2026-04-19 05:22 26.18941 108.04906 32066 ft 429 kts 285°
2026-04-19 05:23 26.20631 107.98530 32069 ft 429 kts 285°
2026-04-19 05:23 26.22308 107.92159 32069 ft 429 kts 285°
2026-04-19 05:24 26.23979 107.85834 32069 ft 428 kts 285°
2026-04-19 05:24 26.25681 107.79473 32071 ft 428 kts 285°
2026-04-19 05:25 26.27395 107.73118 32070 ft 429 kts 285°
2026-04-19 05:25 26.29103 107.66752 32072 ft 429 kts 285°
2026-04-19 05:26 26.30797 107.60384 32076 ft 428 kts 285°
2026-04-19 05:26 26.32479 107.54055 32079 ft 429 kts 285°
2026-04-19 05:27 26.34167 107.47683 32080 ft 428 kts 285°
2026-04-19 05:27 26.35853 107.41316 32081 ft 429 kts 285°
2026-04-19 05:28 26.37542 107.34937 32082 ft 428 kts 285°
2026-04-19 05:28 26.39218 107.28606 32084 ft 429 kts 285°
2026-04-19 05:29 26.40899 107.22228 32084 ft 428 kts 285°
2026-04-19 05:29 26.42580 107.15847 32079 ft 429 kts 285°
2026-04-19 05:30 26.44253 107.09462 32081 ft 428 kts 284°
2026-04-19 05:30 26.45905 107.03123 32081 ft 429 kts 284°
2026-04-19 05:31 26.47623 106.96754 32081 ft 429 kts 285°
2026-04-19 05:31 26.49380 106.90396 32080 ft 429 kts 285°
2026-04-19 05:32 26.51117 106.84030 32080 ft 429 kts 285°
2026-04-19 05:32 26.53450 106.77912 32074 ft 432 kts 300°
2026-04-19 05:33 26.56991 106.72520 32077 ft 434 kts 304°
2026-04-19 05:33 26.60612 106.67124 32075 ft 434 kts 304°
2026-04-19 05:34 26.64283 106.61766 32077 ft 435 kts 305°
2026-04-19 05:34 26.67976 106.56408 32078 ft 435 kts 305°
2026-04-19 05:35 26.71629 106.51074 32079 ft 435 kts 304°
2026-04-19 05:35 26.75301 106.45701 32078 ft 435 kts 304°
2026-04-19 05:36 26.78347 106.41227 32080 ft 435 kts 304°
2026-04-19 05:36 26.82004 106.35836 32081 ft 435 kts 304°
2026-04-19 05:37 26.85651 106.30436 32080 ft 435 kts 304°
2026-04-19 05:37 26.89309 106.25035 32081 ft 435 kts 304°
2026-04-19 05:38 26.92940 106.19664 32081 ft 435 kts 304°
2026-04-19 05:38 26.96590 106.14244 32078 ft 436 kts 304°
2026-04-19 05:39 27.00227 106.08810 32079 ft 434 kts 302°
2026-04-19 05:39 27.01689 106.05872 32079 ft 431 kts 291°
2026-04-19 05:39 27.02624 106.02696 32077 ft 428 kts 281°
2026-04-19 05:39 27.03023 105.98331 32075 ft 425 kts 267°
2026-04-19 05:40 27.02678 105.95051 32073 ft 424 kts 258°
2026-04-19 05:40 27.01641 105.89674 32070 ft 425 kts 257°
2026-04-19 05:41 27.00402 105.83193 32065 ft 425 kts 258°
2026-04-19 05:41 26.99172 105.76704 32064 ft 426 kts 258°
2026-04-19 05:42 26.97935 105.70214 32063 ft 426 kts 258°
2026-04-19 05:42 26.96703 105.63765 32060 ft 426 kts 258°
2026-04-19 05:43 26.95459 105.57274 32061 ft 426 kts 258°
2026-04-19 05:43 26.94211 105.50786 32061 ft 426 kts 258°
2026-04-19 05:44 26.92955 105.44288 32062 ft 426 kts 257°
2026-04-19 05:44 26.91712 105.37851 32061 ft 426 kts 257°
2026-04-19 05:45 26.90455 105.31354 32062 ft 426 kts 257°
2026-04-19 05:45 26.89195 105.24867 32066 ft 426 kts 257°
2026-04-19 05:46 26.87923 105.18377 32065 ft 427 kts 257°
2026-04-19 05:46 26.86656 105.11940 32065 ft 426 kts 257°
2026-04-19 05:47 26.85381 105.05450 32066 ft 426 kts 257°
2026-04-19 05:47 26.84105 104.98970 32065 ft 426 kts 257°
2026-04-19 05:48 26.82818 104.92494 32064 ft 426 kts 257°
2026-04-19 05:48 26.81526 104.86021 32062 ft 426 kts 257°
2026-04-19 05:49 26.80244 104.79598 32064 ft 426 kts 257°
2026-04-19 05:49 26.78949 104.73132 32069 ft 426 kts 257°
2026-04-19 05:50 26.77653 104.66661 32071 ft 427 kts 257°
2026-04-19 05:50 26.77294 104.60061 32073 ft 428 kts 276°
2026-04-19 05:51 26.78776 104.53659 32074 ft 429 kts 286°
2026-04-19 05:51 26.80591 104.47300 32073 ft 429 kts 286°
2026-04-19 05:52 26.82391 104.40928 32076 ft 429 kts 286°
2026-04-19 05:52 26.84195 104.34554 32079 ft 429 kts 286°
2026-04-19 05:53 26.85545 104.28077 32079 ft 428 kts 273°
2026-04-19 05:53 26.85115 104.21512 32080 ft 426 kts 261°
2026-04-19 05:54 26.84249 104.14951 32084 ft 427 kts 262°
2026-04-19 05:54 26.83400 104.08367 32088 ft 427 kts 262°
2026-04-19 05:55 26.82543 104.01780 32093 ft 427 kts 261°
2026-04-19 05:55 26.81674 103.95247 32099 ft 427 kts 262°
2026-04-19 05:56 26.80796 103.88673 32105 ft 427 kts 262°
2026-04-19 05:56 26.79918 103.82099 32112 ft 427 kts 262°
2026-04-19 05:57 26.79043 103.75534 32125 ft 427 kts 262°
2026-04-19 05:57 26.78166 103.68961 32116 ft 427 kts 261°
2026-04-19 05:58 26.77281 103.62437 32114 ft 427 kts 261°
2026-04-19 05:58 26.76386 103.55876 32118 ft 427 kts 261°
2026-04-19 05:59 26.75491 103.49299 32118 ft 427 kts 262°
2026-04-19 05:59 26.74603 103.42728 32125 ft 428 kts 262°
2026-04-19 06:00 26.73744 103.36183 32130 ft 428 kts 262°
2026-04-19 06:00 26.72893 103.29593 32136 ft 428 kts 262°
2026-04-19 06:01 26.72033 103.22992 32144 ft 429 kts 262°
2026-04-19 06:01 26.71173 103.16395 32142 ft 429 kts 262°
2026-04-19 06:02 26.70306 103.09835 32144 ft 429 kts 262°
2026-04-19 06:02 26.69433 103.03228 32148 ft 429 kts 262°
2026-04-19 06:03 26.68555 102.96629 32147 ft 429 kts 262°
2026-04-19 06:03 26.67675 102.90043 32163 ft 428 kts 262°
2026-04-19 06:04 26.66811 102.83513 32173 ft 427 kts 262°
2026-04-19 06:04 26.65933 102.76948 32176 ft 426 kts 262°
2026-04-19 06:05 26.65055 102.70403 32183 ft 425 kts 262°
2026-04-19 06:05 26.64182 102.63861 32187 ft 426 kts 263°
2026-04-19 06:05 26.64065 102.60613 32194 ft 425 kts 277°
2026-04-19 06:06 26.64827 102.57424 32511 ft 428 kts 293°
2026-04-19 06:06 26.66361 102.54562 32826 ft 432 kts 308°
2026-04-19 06:06 26.68550 102.52253 33206 ft 437 kts 323°
2026-04-19 06:06 26.71264 102.50691 33600 ft 443 kts 338°
2026-04-19 06:07 26.74216 102.49671 34000 ft 444 kts 340°
2026-04-19 06:07 26.77174 102.48687 34144 ft 444 kts 340°
2026-04-19 06:07 26.80136 102.47715 34165 ft 443 kts 340°
2026-04-19 06:08 26.86013 102.45795 34159 ft 442 kts 340°
2026-04-19 06:08 26.91904 102.43842 34154 ft 442 kts 340°
2026-04-19 06:09 26.97808 102.41866 34151 ft 442 kts 340°
2026-04-19 06:09 27.03706 102.39900 34146 ft 443 kts 340°
2026-04-19 06:10 27.09575 102.37954 34149 ft 443 kts 340°
2026-04-19 06:10 27.15495 102.35992 34147 ft 444 kts 340°
2026-04-19 06:11 27.21417 102.34035 34148 ft 443 kts 340°
2026-04-19 06:11 27.27327 102.32078 34138 ft 443 kts 340°
2026-04-19 06:12 27.36137 102.29148 34125 ft 442 kts 340°
2026-04-19 06:12 27.42037 102.27183 34115 ft 442 kts 340°
2026-04-19 06:13 27.47925 102.25217 34111 ft 441 kts 340°
2026-04-19 06:13 27.53774 102.23268 34105 ft 441 kts 340°
2026-04-19 06:14 27.59656 102.21309 34101 ft 440 kts 340°
2026-04-19 06:14 27.65533 102.19348 34087 ft 441 kts 340°
2026-04-19 06:15 27.71350 102.17202 34085 ft 437 kts 332°
2026-04-19 06:15 27.76297 102.13447 34080 ft 430 kts 314°
2026-04-19 06:16 27.80292 102.08444 34075 ft 429 kts 309°
2026-04-19 06:16 27.84234 102.03394 34074 ft 429 kts 309°
2026-04-19 06:17 27.88183 101.98336 34075 ft 429 kts 309°
2026-04-19 06:17 27.92119 101.93269 34062 ft 429 kts 309°
2026-04-19 06:18 27.96033 101.88233 34055 ft 429 kts 309°
2026-04-19 06:18 27.99977 101.83159 34047 ft 429 kts 309°
2026-04-19 06:19 28.03923 101.78081 34039 ft 429 kts 309°
2026-04-19 06:19 28.07854 101.73006 34035 ft 429 kts 309°
2026-04-19 06:20 28.11764 101.67954 34042 ft 429 kts 309°
2026-04-19 06:20 28.15691 101.62863 34034 ft 429 kts 309°
2026-04-19 06:21 28.19625 101.57766 34043 ft 429 kts 309°
2026-04-19 06:21 28.23559 101.52677 34044 ft 429 kts 309°
2026-04-19 06:22 28.27480 101.47585 34038 ft 428 kts 309°
2026-04-19 06:22 28.31364 101.42522 34034 ft 428 kts 309°
2026-04-19 06:23 28.35278 101.37425 34031 ft 428 kts 309°
2026-04-19 06:23 28.39183 101.32336 34035 ft 427 kts 309°
2026-04-19 06:24 28.43085 101.27237 34028 ft 428 kts 309°
2026-04-19 06:24 28.46955 101.22174 34026 ft 427 kts 309°
2026-04-19 06:25 28.50848 101.17086 34029 ft 426 kts 309°
2026-04-19 06:25 28.54733 101.11998 34025 ft 426 kts 309°
2026-04-19 06:26 28.58617 101.06901 34020 ft 426 kts 309°
2026-04-19 06:26 28.62472 101.01831 34012 ft 426 kts 309°
2026-04-19 06:27 28.66347 100.96729 34018 ft 426 kts 309°
2026-04-19 06:27 28.70227 100.91633 34014 ft 426 kts 309°
2026-04-19 06:28 28.74099 100.86532 34013 ft 425 kts 309°
2026-04-19 06:28 28.77967 100.81435 34013 ft 425 kts 309°
2026-04-19 06:29 28.81801 100.76371 34012 ft 425 kts 309°
2026-04-19 06:29 28.85653 100.71269 34006 ft 425 kts 308°
2026-04-19 06:30 28.89507 100.66150 34002 ft 425 kts 309°
2026-04-19 06:30 28.93357 100.61038 33994 ft 424 kts 309°
2026-04-19 06:31 28.97186 100.55965 33994 ft 425 kts 308°
2026-04-19 06:31 29.01037 100.50847 33996 ft 425 kts 308°
2026-04-19 06:32 29.04884 100.45724 33997 ft 425 kts 308°
2026-04-19 06:32 29.08728 100.40597 33999 ft 425 kts 308°
2026-04-19 06:33 29.12543 100.35496 33996 ft 425 kts 308°
2026-04-19 06:33 29.16391 100.30356 33992 ft 425 kts 308°
2026-04-19 06:34 29.20239 100.25213 33991 ft 425 kts 308°
2026-04-19 06:34 29.24086 100.20062 33992 ft 426 kts 308°
2026-04-19 06:35 29.27934 100.14906 33989 ft 426 kts 308°
2026-04-19 06:35 29.31749 100.09774 33989 ft 426 kts 308°
2026-04-19 06:36 29.34890 100.04091 33990 ft 422 kts 291°
2026-04-19 06:36 29.36158 99.97566 33990 ft 421 kts 274°
2026-04-19 06:37 29.36613 99.90879 33985 ft 421 kts 275°
2026-04-19 06:37 29.37070 99.84230 33986 ft 421 kts 275°
2026-04-19 06:38 29.37532 99.77537 33984 ft 421 kts 275°
2026-04-19 06:38 29.37989 99.70836 33982 ft 422 kts 275°
2026-04-19 06:39 29.38438 99.64139 33980 ft 421 kts 275°
2026-04-19 06:39 29.38893 99.57441 33979 ft 422 kts 275°
2026-04-19 06:40 29.39346 99.50781 33981 ft 422 kts 275°
2026-04-19 06:40 29.39779 99.44086 33979 ft 422 kts 274°
2026-04-19 06:41 29.40213 99.37365 33981 ft 422 kts 275°
2026-04-19 06:41 29.40648 99.30656 33979 ft 422 kts 275°
2026-04-19 06:42 29.41081 99.23994 33981 ft 422 kts 275°
2026-04-19 06:42 29.41505 99.17279 33981 ft 422 kts 274°
2026-04-19 06:43 29.41912 99.10570 33978 ft 422 kts 274°
2026-04-19 06:43 29.42312 99.03842 33981 ft 423 kts 274°
2026-04-19 06:44 29.42712 98.97159 33980 ft 422 kts 274°
2026-04-19 06:44 29.43114 98.90436 33980 ft 423 kts 274°
2026-04-19 06:45 29.43515 98.83717 33982 ft 422 kts 274°
2026-04-19 06:45 29.43917 98.76994 33979 ft 422 kts 274°
2026-04-19 06:46 29.44304 98.70320 33979 ft 422 kts 274°
2026-04-19 06:46 29.44689 98.63590 33976 ft 423 kts 274°
2026-04-19 06:47 29.45071 98.56864 33974 ft 423 kts 274°
2026-04-19 06:47 29.45454 98.50125 33973 ft 423 kts 274°
2026-04-19 06:48 29.45841 98.43435 33962 ft 423 kts 274°
2026-04-19 06:48 29.46224 98.36696 33959 ft 423 kts 274°
2026-04-19 06:49 29.46594 98.29950 33965 ft 424 kts 274°
2026-04-19 06:49 29.46957 98.23208 33965 ft 424 kts 274°
2026-04-19 06:50 29.47320 98.16445 33963 ft 424 kts 274°
2026-04-19 06:50 29.47682 98.09724 33968 ft 426 kts 274°
2026-04-19 06:51 29.48041 98.02956 33962 ft 425 kts 274°
2026-04-19 06:51 29.48396 97.96185 33966 ft 425 kts 274°
2026-04-19 06:52 29.48750 97.89412 33959 ft 425 kts 274°
2026-04-19 06:52 29.49096 97.82689 33965 ft 425 kts 274°
2026-04-19 06:53 29.49441 97.75919 33967 ft 425 kts 274°
2026-04-19 06:53 29.49786 97.69154 33967 ft 425 kts 274°
2026-04-19 06:54 29.50128 97.62396 33963 ft 424 kts 273°
2026-04-19 06:54 29.50455 97.55684 33968 ft 424 kts 273°
2026-04-19 06:55 29.50781 97.48936 33963 ft 423 kts 273°
2026-04-19 06:55 29.51113 97.42195 33964 ft 422 kts 273°
2026-04-19 06:56 29.51438 97.35469 33954 ft 422 kts 273°
2026-04-19 06:56 29.51757 97.28747 33953 ft 421 kts 274°
2026-04-19 06:57 29.52069 97.22073 33946 ft 421 kts 273°
2026-04-19 06:57 29.52383 97.15362 33943 ft 421 kts 273°
2026-04-19 06:58 29.52695 97.08649 33945 ft 421 kts 273°
2026-04-19 06:58 29.52995 97.01937 33949 ft 420 kts 273°
2026-04-19 06:59 29.53286 96.95286 33964 ft 420 kts 273°
2026-04-19 06:59 29.53590 96.88597 33950 ft 419 kts 273°
2026-04-19 07:00 29.53894 96.81913 33956 ft 419 kts 273°
2026-04-19 07:00 29.54180 96.75274 33946 ft 418 kts 273°
2026-04-19 07:01 29.54462 96.68605 33948 ft 418 kts 273°
2026-04-19 07:01 29.54750 96.61931 33948 ft 419 kts 273°
2026-04-19 07:02 29.55034 96.55255 33952 ft 418 kts 273°
2026-04-19 07:02 29.55311 96.48590 33954 ft 418 kts 273°
2026-04-19 07:03 29.55581 96.41929 33943 ft 417 kts 273°
2026-04-19 07:03 29.55847 96.35323 33940 ft 416 kts 273°
2026-04-19 07:04 29.56118 96.28668 33934 ft 417 kts 272°
2026-04-19 07:04 29.56385 96.22019 33935 ft 416 kts 272°
2026-04-19 07:05 29.56645 96.15365 33953 ft 417 kts 272°
2026-04-19 07:05 29.56893 96.08754 33941 ft 417 kts 272°
2026-04-19 07:06 29.57148 96.02096 33949 ft 418 kts 273°
2026-04-19 07:06 29.57412 95.95438 33948 ft 417 kts 272°
2026-04-19 07:07 29.57666 95.88777 33885 ft 418 kts 272°
2026-04-19 07:07 29.57791 95.85439 33625 ft 418 kts 272°
2026-04-19 07:07 29.57911 95.82100 33375 ft 418 kts 272°
2026-04-19 07:08 29.58026 95.78803 33133 ft 420 kts 272°
2026-04-19 07:08 29.58143 95.75449 32879 ft 421 kts 272°
2026-04-19 07:08 29.58259 95.72086 32635 ft 422 kts 272°
2026-04-19 07:08 29.58376 95.68711 32379 ft 424 kts 272°
2026-04-19 07:09 29.58496 95.65323 32126 ft 425 kts 274°
2026-04-19 07:09 29.58912 95.61963 31870 ft 426 kts 284°
2026-04-19 07:09 29.59876 95.58749 31621 ft 428 kts 294°
2026-04-19 07:09 29.61361 95.55778 31369 ft 431 kts 304°
2026-04-19 07:10 29.63282 95.53186 31121 ft 433 kts 312°
2026-04-19 07:10 29.65373 95.50701 30872 ft 433 kts 312°
2026-04-19 07:10 29.67450 95.48222 30601 ft 425 kts 312°
2026-04-19 07:10 29.69469 95.45805 30362 ft 413 kts 312°
2026-04-19 07:11 29.71433 95.43453 30115 ft 404 kts 312°
2026-04-19 07:11 29.73362 95.41146 29861 ft 395 kts 313°
2026-04-19 07:11 29.75249 95.38893 29607 ft 387 kts 313°
2026-04-19 07:11 29.77098 95.36684 29354 ft 379 kts 312°
2026-04-19 07:12 29.78917 95.34508 29105 ft 376 kts 312°
2026-04-19 07:12 29.80700 95.32373 28856 ft 374 kts 312°
2026-04-19 07:12 29.82500 95.30216 28607 ft 373 kts 313°
2026-04-19 07:12 29.84299 95.28058 28350 ft 372 kts 313°
2026-04-19 07:13 29.86087 95.25914 28099 ft 371 kts 312°
2026-04-19 07:13 29.87875 95.23769 27848 ft 371 kts 313°
2026-04-19 07:13 29.89661 95.21627 27603 ft 370 kts 313°
2026-04-19 07:13 29.91445 95.19485 27345 ft 370 kts 312°
2026-04-19 07:14 29.93221 95.17351 27085 ft 369 kts 312°
2026-04-19 07:14 29.94973 95.15245 26840 ft 368 kts 312°
2026-04-19 07:14 29.96790 95.13058 26379 ft 393 kts 312°
2026-04-19 07:14 29.98699 95.10723 25810 ft 404 kts 311°
2026-04-19 07:15 30.00748 95.08490 25129 ft 406 kts 319°
2026-04-19 07:15 30.02914 95.06393 24506 ft 407 kts 319°
2026-04-19 07:15 30.07253 95.02227 23388 ft 404 kts 319°
2026-04-19 07:16 30.09414 95.00155 22895 ft 402 kts 319°
2026-04-19 07:16 30.11362 94.97885 22557 ft 393 kts 302°
2026-04-19 07:16 30.12351 94.95110 22341 ft 372 kts 278°
2026-04-19 07:16 30.12231 94.92220 22088 ft 354 kts 252°
2026-04-19 07:17 30.11056 94.89821 21832 ft 340 kts 225°
2026-04-19 07:17 30.09125 94.88388 21581 ft 327 kts 199°
2026-04-19 07:17 30.06913 94.87882 21324 ft 323 kts 182°
2026-04-19 07:17 30.04696 94.87992 21084 ft 317 kts 177°
2026-04-19 07:18 30.02494 94.88170 20827 ft 316 kts 177°
2026-04-19 07:18 30.00314 94.88171 20570 ft 311 kts 190°
2026-04-19 07:18 29.98293 94.87476 20325 ft 306 kts 207°
2026-04-19 07:18 29.96545 94.86119 20071 ft 302 kts 224°
2026-04-19 07:19 29.95242 94.84246 19823 ft 300 kts 240°
2026-04-19 07:19 29.94152 94.82197 19573 ft 299 kts 234°
2026-04-19 07:19 29.92799 94.80380 19322 ft 299 kts 224°
2026-04-19 07:19 29.91174 94.78891 19066 ft 298 kts 212°
2026-04-19 07:20 29.89330 94.77805 18823 ft 298 kts 201°
2026-04-19 07:20 29.87344 94.77146 18567 ft 298 kts 191°
2026-04-19 07:20 29.85279 94.76933 18319 ft 298 kts 180°
2026-04-19 07:20 29.83255 94.77162 18182 ft 297 kts 169°
2026-04-19 07:21 29.81273 94.77825 18098 ft 297 kts 158°
2026-04-19 07:21 29.79436 94.78921 18148 ft 298 kts 147°
2026-04-19 07:21 29.77810 94.80406 18149 ft 299 kts 136°
2026-04-19 07:21 29.76428 94.82203 18159 ft 300 kts 130°
2026-04-19 07:22 29.75082 94.84037 18109 ft 302 kts 133°
2026-04-19 07:22 29.73574 94.85706 17846 ft 300 kts 141°
2026-04-19 07:22 29.71908 94.87127 17594 ft 298 kts 148°
2026-04-19 07:22 29.70117 94.88300 17440 ft 294 kts 155°
2026-04-19 07:23 29.68232 94.89218 17339 ft 296 kts 162°
2026-04-19 07:23 29.66284 94.89851 17092 ft 294 kts 169°
2026-04-19 07:23 29.64268 94.90204 16830 ft 290 kts 176°
2026-04-19 07:23 29.62279 94.90279 16581 ft 284 kts 182°
2026-04-19 07:24 29.60333 94.90091 16343 ft 276 kts 189°
2026-04-19 07:24 29.58487 94.89666 16108 ft 266 kts 195°
2026-04-19 07:24 29.56752 94.89031 15855 ft 258 kts 201°
2026-04-19 07:24 29.55132 94.88212 15623 ft 249 kts 207°
2026-04-19 07:25 29.53662 94.87245 15373 ft 238 kts 213°
2026-04-19 07:25 29.52339 94.86148 15147 ft 234 kts 219°
2026-04-19 07:25 29.51149 94.84939 15019 ft 230 kts 224°
2026-04-19 07:25 29.50041 94.83612 14832 ft 228 kts 229°
2026-04-19 07:26 29.49054 94.82181 14849 ft 230 kts 234°
2026-04-19 07:26 29.48194 94.80654 14843 ft 221 kts 240°
2026-04-19 07:26 29.47514 94.79127 14847 ft 216 kts 245°
2026-04-19 07:26 29.46953 94.77518 14852 ft 218 kts 251°
2026-04-19 07:27 29.46512 94.75848 14682 ft 217 kts 256°
2026-04-19 07:27 29.46214 94.74176 14558 ft 218 kts 261°
2026-04-19 07:27 29.46046 94.72449 14400 ft 217 kts 266°
2026-04-19 07:27 29.46015 94.70718 14252 ft 217 kts 271°
2026-04-19 07:28 29.46121 94.68993 14115 ft 217 kts 276°
2026-04-19 07:28 29.46357 94.67284 13978 ft 217 kts 281°
2026-04-19 07:28 29.46714 94.65608 13799 ft 216 kts 284°
2026-04-19 07:28 29.47100 94.63943 13617 ft 214 kts 284°
2026-04-19 07:29 29.47485 94.62280 13543 ft 216 kts 284°
2026-04-19 07:29 29.47706 94.60587 13465 ft 215 kts 272°
2026-04-19 07:29 29.47661 94.58904 13379 ft 210 kts 262°
2026-04-19 07:29 29.47360 94.57298 13297 ft 203 kts 252°
2026-04-19 07:30 29.46838 94.55802 13240 ft 202 kts 243°
2026-04-19 07:30 29.46145 94.54399 13061 ft 202 kts 239°
2026-04-19 07:30 29.45451 94.53024 12939 ft 194 kts 239°
2026-04-19 07:30 29.44792 94.51720 12796 ft 188 kts 239°
2026-04-19 07:31 29.44142 94.50432 12553 ft 187 kts 239°
2026-04-19 07:31 29.43493 94.49145 12295 ft 186 kts 239°
2026-04-19 07:31 29.42820 94.47909 12071 ft 182 kts 234°
2026-04-19 07:31 29.42052 94.46794 11854 ft 175 kts 228°
2026-04-19 07:32 29.41213 94.45799 11658 ft 172 kts 222°
2026-04-19 07:32 29.40311 94.44918 11453 ft 169 kts 217°
2026-04-19 07:32 29.39349 94.44144 11263 ft 168 kts 212°
2026-04-19 07:32 29.38370 94.43410 11073 ft 168 kts 213°
2026-04-19 07:33 29.37394 94.42674 10866 ft 167 kts 213°
2026-04-19 07:33 29.36429 94.41933 10701 ft 166 kts 213°
2026-04-19 07:33 29.35497 94.41149 10543 ft 166 kts 219°
2026-04-19 07:33 29.34655 94.40240 10436 ft 166 kts 225°
2026-04-19 07:34 29.33921 94.39239 10331 ft 167 kts 232°
2026-04-19 07:34 29.33256 94.38157 10208 ft 166 kts 233°
2026-04-19 07:34 29.32586 94.37080 10102 ft 166 kts 233°
2026-04-19 07:34 29.31916 94.36005 9944 ft 166 kts 233°
2026-04-19 07:35 29.31249 94.34930 9753 ft 165 kts 234°
2026-04-19 07:35 29.30632 94.33939 9699 ft 121 kts 234°
2026-04-19 07:35 29.30298 94.33399 9693 ft 61 kts 234°
2026-04-19 07:35 29.30091 94.33065 9685 ft 42 kts 234°
2026-04-19 07:36 29.29963 94.32856 9683 ft 14 kts 243°
2026-04-19 07:36 29.30017 94.32784 9681 ft 13 kts 324°
2026-04-19 07:36 29.30068 94.32742 9680 ft 9 kts 329°
2026-04-19 07:36 29.30103 94.32766 9682 ft 7 kts 54°
2026-04-19 07:37 29.30132 94.32813 9682 ft 7 kts 54°
2026-04-19 07:37 29.30160 94.32858 9683 ft 8 kts 54°
2026-04-19 07:37 29.30196 94.32915 9684 ft 10 kts 54°
2026-04-19 07:37 29.30246 94.32996 9687 ft 14 kts 54°
2026-04-19 07:38 29.30305 94.33091 9690 ft 15 kts 54°
2026-04-19 07:38 29.30368 94.33194 9694 ft 17 kts 54°
2026-04-19 07:38 29.30440 94.33309 9694 ft 20 kts 54°
2026-04-19 07:38 29.30521 94.33441 9695 ft 17 kts 54°
2026-04-19 07:39 29.30579 94.33534 9695 ft 10 kts 55°
2026-04-19 07:39 29.30620 94.33543 9693 ft 8 kts 335°
2026-04-19 07:39 29.30677 94.33501 9690 ft 9 kts 351°
2026-04-19 07:39 29.30718 94.33550 9690 ft 9 kts 55°
2026-04-19 07:40 29.30748 94.33592 9690 ft 4 kts 21°
2026-04-19 07:40 29.30783 94.33569 9688 ft 4 kts 325°
2026-04-19 07:40 29.30787 94.33566 9688 ft 0 kts 325°